Powrót do katalogu

STARLINK-35497

AktywnyŁącznośćVLEO
NORAD 66241·PAYLOAD·🇺🇸 United States

Wystrzelony Oct 29, 2025 z Cape Canaveral Space Force Station

Loading…

Następne Przeloty (najbliższe 24 godziny)

TLE

ŚwieżeSource: CelesTrak SupGP

Epoka: Sep 14, 2026, 14:25 UTC

1 66241C 25245H   26257.60118056  .00040637  00000+0  12004-2 0  2571
2 66241  53.1577 125.2207 0001234 101.6829   6.8349 15.34376544    18

Śledź STARLINK-35497 w czasie rzeczywistym z AllMySat

Download on the App Store